Theta_e
289 289 288 288 289 289 289 289 288 288 289 289 289 289 289 289 290 290 290 290 291 292 293 293 292 290 289 288 288 288 288 288 288 288 288 288 288 288 289 289 289 289 289 289 290 290 291 291 291 292 292 292 292 291 291 290 289 289 289 289 289 289 289 289 289 289 289 288 288
287 287 287 287 287 288 289 289 288 289 288 289 288 288 288 289 289 289 289 289 290 291 292 292 290 289 288 287 287 287 287 287 287 287 287 287 287 288 288 289 289 289 289 289 289 289 290 289 290 290 291 291 291 291 290 290 290 290 289 289 290 289 289 289 288 287 287 287 286
286 286 286 287 287 288 288 288 288 287 287 287 288 288 288 288 289 289 289 289 289 289 290 290 289 287 287 286 286 286 286 286 287 287 287 287 287 287 288 288 288 288 289 289 289 289 290 290 290 290 290 291 290 290 289 290 290 289 288 288 289 289 288 288 287 286 286 286 284
285 285 285 286 285 285 286 287 287 286 286 288 287 287 287 288 288 289 288 287 287 288 289 288 287 286 286 285 285 285 285 285 286 286 286 286 286 286 286 287 287 287 288 289 290 290 291 292 292 291 290 289 289 289 289 289 289 288 288 288 288 287 287 287 286 286 286 285 284
285 285 285 285 285 285 285 285 285 286 286 287 287 287 287 287 288 288 287 288 288 288 288 287 286 285 285 284 285 285 285 285 285 286 286 286 286 286 286 286 287 288 289 289 290 291 291 291 291 291 290 289 289 288 288 288 287 287 287 288 288 287 287 286 286 286 285 284 283
285 284 284 284 284 285 285 285 285 285 286 286 286 286 286 288 288 287 287 287 286 286 286 285 285 284 284 284 284 284 284 285 285 285 285 285 286 286 286 287 288 289 290 290 290 290 290 290 291 290 290 290 289 288 287 287 287 286 286 287 287 286 285 284 285 284 283 282 281
284 284 284 284 284 284 284 284 285 285 285 285 284 284 285 285 286 286 285 286 286 286 286 286 285 285 284 284 284 284 284 284 285 284 284 284 285 286 287 288 289 290 291 290 290 290 289 289 290 289 289 289 289 288 287 286 285 285 285 285 285 285 284 283 283 283 282 280 279
285 284 284 284 284 284 284 284 284 285 285 285 284 284 284 284 285 285 286 286 286 287 287 287 286 285 284 284 284 284 284 284 284 284 284 284 286 287 288 289 289 290 290 290 290 289 289 289 289 289 288 287 288 286 284 283 282 282 282 281 282 282 281 281 281 281 281 280 279
284 284 284 284 284 284 284 284 284 284 284 284 284 284 284 285 285 286 287 287 287 287 287 287 287 286 285 284 284 284 285 285 284 284 284 285 287 288 289 289 289 289 289 289 289 289 288 288 288 288 287 287 286 284 282 281 280 280 280 280 280 280 279 279 279 279 279 279 279
284 284 284 284 284 284 284 284 284 284 284 284 284 285 286 287 287 288 288 289 288 288 288 288 288 287 286 285 285 285 285 286 286 285 286 287 288 289 289 289 288 288 288 288 288 287 286 286 286 285 284 284 282 281 280 280 280 280 280 281 280 279 278 278 278 278 278 278 278
283 283 284 284 284 284 285 285 285 285 285 285 286 287 288 288 289 289 289 290 290 289 289 289 288 287 287 286 286 286 287 287 287 288 289 290 290 289 289 288 288 287 287 287 287 286 285 285 284 283 282 282 280 280 280 280 280 280 280 279 278 278 278 278 277 276 276 276 277
283 283 284 284 284 285 285 286 287 287 287 287 288 289 289 290 290 290 290 290 289 289 289 288 287 286 286 287 288 288 288 289 289 289 290 290 290 289 288 288 287 287 287 287 286 285 285 284 283 283 282 281 280 280 280 280 280 280 279 279 277 277 277 278 276 276 275 275 276
283 283 284 284 285 285 286 286 287 287 288 288 289 289 290 290 290 290 289 289 289 289 288 287 285 285 286 287 288 289 289 290 290 290 290 290 290 289 288 288 287 286 286 286 285 284 284 283 283 283 282 282 281 280 280 280 279 279 279 279 278 277 277 278 276 275 274 274 275
283 283 284 285 285 286 287 287 288 288 289 289 289 290 290 290 290 289 289 288 288 287 287 285 284 285 287 288 289 289 290 291 291 291 290 290 290 289 288 287 286 285 285 285 284 283 283 282 282 282 282 282 281 280 280 279 279 279 279 279 279 278 278 277 275 274 274 274 274
283 284 285 285 286 287 287 287 289 289 289 289 290 290 290 290 289 289 288 286 286 285 285 283 284 286 287 288 289 290 291 291 290 290 290 290 290 289 288 286 285 285 284 284 284 283 282 282 281 281 281 281 281 280 280 279 279 278 278 278 278 278 277 276 275 274 274 274 274
284 285 285 286 286 287 287 288 289 290 290 290 289 289 289 289 289 288 286 285 284 284 283 283 284 285 286 287 288 289 290 290 289 289 288 288 288 288 287 286 285 284 284 283 282 282 282 281 281 281 281 280 280 280 279 278 278 278 277 277 277 277 276 276 274 274 274 274 274
284 285 286 286 286 287 288 288 289 290 290 290 289 289 289 289 288 287 285 284 282 282 283 283 284 284 285 286 287 288 288 287 287 287 287 287 287 286 286 285 284 283 282 282 281 281 281 281 280 280 280 280 280 279 279 279 278 277 277 277 276 276 276 276 275 274 274 274 273
285 285 286 286 287 287 288 288 289 289 289 290 289 288 287 287 287 286 285 283 282 282 283 284 284 284 284 285 286 287 287 286 286 286 287 286 286 285 285 284 284 283 281 280 280 280 281 281 280 280 280 280 279 279 279 279 278 278 277 276 276 275 275 275 274 273 273 273 273
284 285 286 286 287 287 288 289 289 289 289 290 288 287 286 286 286 285 285 283 283 283 284 284 285 285 285 285 286 286 286 286 286 286 286 285 285 284 284 283 282 281 280 280 280 280 280 281 281 280 280 280 280 279 279 278 277 276 275 275 275 274 274 274 273 273 273 273 273
284 285 285 286 287 288 289 289 289 289 289 289 288 287 286 284 284 284 284 284 284 284 284 284 285 285 285 285 285 285 285 286 285 285 285 284 283 283 282 281 280 280 279 279 280 280 280 280 280 280 280 279 279 278 277 276 275 274 273 273 273 273 273 273 272 272 272 272 272
284 285 285 286 288 289 289 289 289 289 288 288 287 286 285 284 284 284 284 285 285 285 284 285 285 285 285 285 285 285 285 285 284 284 283 283 282 281 280 279 279 279 279 279 279 279 279 279 279 279 278 278 277 277 276 274 273 273 272 272 272 272 272 272 271 271 271 271 272
284 284 285 286 288 289 289 288 288 287 287 286 286 285 284 284 284 284 285 285 285 285 285 285 285 285 285 285 284 284 283 283 283 282 281 281 280 279 279 278 278 279 279 279 279 279 279 279 278 277 276 276 275 275 274 274 273 272 272 271 271 271 271 270 270 270 271 271 271
284 284 285 287 287 287 287 287 286 286 285 285 285 285 284 284 284 285 285 285 285 285 285 285 285 285 285 284 283 282 281 281 280 279 279 278 278 278 278 278 278 279 279 280 280 279 279 279 278 277 276 275 274 274 274 274 273 273 272 272 272 272 271 271 270 270 270 270 271
283 284 285 287 287 287 286 286 285 285 285 285 285 284 284 284 284 284 284 285 285 284 285 285 285 285 284 283 282 281 279 278 278 277 277 277 277 277 278 278 278 279 279 281 282 282 281 280 279 278 277 276 275 274 274 273 273 273 273 273 273 273 273 272 271 270 271 271 272
283 283 284 286 287 286 285 285 284 284 284 284 284 284 284 284 284 284 284 284 284 284 284 284 284 283 283 282 281 279 278 278 277 277 277 277 277 277 278 278 278 279 281 283 286 287 286 284 282 280 278 276 275 275 274 274 273 273 273 273 273 273 273 273 272 272 272 273 273
283 283 283 285 285 285 284 284 283 283 284 284 283 283 283 283 283 283 283 283 283 283 283 283 283 282 281 280 279 278 278 277 277 276 276 276 276 277 277 278 278 280 282 286 286 286 286 286 285 282 278 275 275 275 275 274 274 273 272 272 272 272 272 273 273 273 274 274 274
282 282 283 284 284 284 283 283 283 283 283 283 283 283 283 283 283 283 282 282 282 282 282 282 282 281 280 279 278 278 277 277 277 276 276 276 276 277 277 277 278 279 282 286 286 286 285 285 284 283 280 276 275 274 274 274 273 273 272 271 271 271 271 272 273 274 274 275 274
281 281 282 283 283 283 283 282 282 283 283 283 282 283 283 283 282 282 282 282 282 282 282 282 281 281 279 278 278 277 277 277 277 277 277 277 277 276 276 276 275 278 282 286 286 285 285 285 284 283 282 278 275 274 273 273 272 272 272 271 271 271 271 272 273 273 274 273 273
281 281 281 282 282 283 282 282 282 282 282 282 282 283 283 282 282 282 282 282 281 281 281 281 281 280 279 278 278 278 278 278 277 277 277 276 276 275 274 274 274 278 282 286 285 285 284 284 284 283 282 281 276 273 272 271 272 272 271 271 271 271 271 272 272 273 273 272 273
280 280 280 281 282 282 282 282 282 282 282 283 282 282 282 281 282 281 281 281 281 281 281 281 281 280 279 278 278 278 278 278 277 276 275 274 274 273 273 274 274 277 282 285 285 284 284 284 283 283 282 281 277 274 272 271 271 271 271 271 271 271 271 271 271 272 272 272 273
280 280 280 280 281 281 281 281 282 282 282 282 282 281 281 281 281 281 281 281 281 281 281 281 280 280 279 279 279 278 278 277 276 275 273 272 273 273 273 273 273 276 281 285 284 284 284 284 283 283 282 282 277 274 271 270 270 270 270 270 270 270 270 271 271 271 272 272 273
279 279 279 279 280 280 281 281 281 282 281 281 281 281 281 281 280 281 281 281 281 281 281 281 280 280 279 279 278 277 276 275 274 273 272 271 271 272 272 272 272 276 280 285 284 284 284 284 283 283 282 282 278 273 270 270 269 269 269 269 270 270 270 271 271 272 272 273 274
278 278 279 279 279 280 281 281 281 281 281 281 281 281 281 280 280 280 281 281 280 280 280 280 280 279 278 278 277 276 275 274 273 272 272 271 271 271 271 272 272 276 282 284 284 284 284 284 283 283 282 282 277 273 270 269 269 269 269 269 270 270 270 271 272 272 273 273 274
278 278 279 279 279 280 280 280 280 280 280 281 281 281 281 280 280 280 280 280 280 280 280 280 279 278 277 276 276 275 274 273 272 272 271 271 270 271 271 271 271 276 282 284 284 283 283 283 283 283 282 281 276 272 269 269 269 269 269 269 270 270 271 271 272 272 273 273 273
278 278 279 279 279 279 279 279 279 280 280 280 281 280 280 279 279 280 279 279 280 279 279 278 277 276 275 275 275 274 274 273 273 272 272 271 270 270 271 271 271 275 281 283 283 283 283 282 282 282 281 279 274 270 269 269 269 269 269 270 270 271 271 271 272 272 272 273 273
278 278 278 278 279 279 279 279 279 279 280 280 280 280 279 279 279 279 279 279 279 278 278 277 276 275 275 276 275 275 274 274 273 273 272 271 270 270 270 270 271 274 279 282 282 282 282 282 282 282 280 277 272 270 269 269 269 269 269 269 270 271 271 272 272 272 273 273 273
278 278 278 278 279 279 279 279 279 279 279 279 279 279 278 278 279 278 278 278 278 278 277 276 275 275 276 276 276 276 275 275 274 273 272 270 269 269 269 270 270 272 276 281 282 282 282 282 282 281 279 275 271 270 269 269 269 269 269 269 270 271 271 272 272 272 272 272 273
277 277 278 278 278 279 279 279 278 278 278 278 278 278 278 278 278 278 278 277 277 277 277 276 276 276 276 277 277 276 276 275 273 271 270 269 269 268 268 269 269 271 274 280 281 281 281 281 281 281 279 275 271 270 269 269 269 269 269 270 271 271 271 272 272 272 272 272 275
277 277 277 278 278 279 279 278 278 278 278 278 278 278 278 277 278 278 278 277 277 277 277 277 276 276 277 277 276 275 274 272 271 270 269 268 269 270 270 268 269 270 273 278 280 281 281 281 281 281 280 276 272 270 269 269 269 269 270 270 271 271 271 272 272 272 272 272 276
277 277 277 278 278 278 278 278 278 278 278 278 277 277 277 277 277 278 278 277 278 278 278 277 277 276 276 275 274 273 272 271 269 269 268 268 269 272 273 268 268 269 272 276 279 280 280 281 281 281 280 276 272 270 270 269 269 270 270 271 272 272 272 272 273 273 272 272 275
277 277 278 278 278 278 278 277 277 277 277 277 277 277 277 277 277 277 277 277 279 279 278 277 276 275 275 274 273 271 271 270 269 268 267 268 269 271 271 268 267 268 269 273 278 280 280 280 280 281 280 278 273 271 270 270 270 271 272 273 274 274 274 274 273 273 273 273 273
Wind_Speed
5 4 4 4 4 3 3 3 3 3 3 3 4 4 4 4 4 4 4 4 5 5 5 4 3 3 3 4 4 3 2 3 4 5 5 5 5 5 5 6 6 6 6 6 6 6 5 5 5 4 3 3 4 4 4 3 4 4 4 4 4 3 3 3 2 2 2 2 2
5 4 4 4 4 4 3 4 4 4 4 4 4 4 4 4 4 4 5 5 5 5 5 4 3 3 3 4 4 3 3 3 3 4 4 5 5 5 5 5 6 6 6 6 5 5 4 4 4 4 3 3 3 4 4 4 4 4 4 4 3 2 2 1 1 1 2 2 2
4 4 4 4 4 5 5 5 5 5 5 4 4 4 4 4 4 4 5 5 5 5 5 4 3 3 3 4 4 3 3 2 2 3 3 4 5 5 5 5 6 6 5 5 5 5 4 4 4 3 3 3 4 4 4 4 3 3 3 2 1 1 1 1 2 2 2 2 2
4 4 5 5 5 5 5 5 5 6 6 5 4 4 4 4 4 4 5 5 6 6 5 4 4 3 3 3 4 3 3 2 2 2 3 4 4 5 5 5 5 5 5 5 5 5 5 4 3 3 3 3 3 3 2 2 1 1 1 2 2 2 3 3 3 3 3 3 3
5 5 4 5 5 5 5 5 6 6 6 5 5 4 4 4 4 5 5 6 6 6 6 5 4 3 3 3 4 3 3 2 2 2 3 3 3 3 4 4 4 4 4 4 4 4 3 3 2 2 2 2 2 2 3 3 4 4 3 3 3 3 3 3 3 3 3 2 2
5 5 5 5 5 5 5 5 6 6 5 5 5 5 6 5 5 6 6 6 6 6 7 6 5 4 4 3 4 3 2 2 2 2 2 2 2 2 3 3 3 3 3 3 2 2 2 2 2 2 2 2 3 3 4 5 4 4 3 3 2 2 2 2 2 2 2 2 1
5 5 6 6 6 6 6 6 6 6 5 5 6 6 7 6 7 7 7 6 6 6 6 6 5 5 4 3 3 2 1 1 2 2 2 2 1 2 2 2 2 2 1 1 1 1 2 2 2 2 2 2 2 3 3 3 2 2 2 2 2 2 2 2 2 2 2 2 1
5 5 5 6 6 7 7 7 6 6 5 5 6 7 7 8 8 8 7 7 6 6 6 6 6 5 5 4 3 2 1 2 2 2 2 1 1 1 1 1 1 0 1 1 2 2 2 2 2 2 2 2 2 2 2 1 2 2 2 3 2 2 2 2 2 2 2 2 1
5 6 6 6 6 7 7 7 6 6 5 6 6 7 7 8 8 8 8 7 7 6 6 6 6 6 5 4 2 1 1 2 2 3 3 3 2 1 1 0 1 2 2 3 3 3 3 2 2 2 2 2 2 2 1 1 2 3 3 3 2 2 2 2 2 2 1 1 1
6 6 6 6 7 7 7 7 6 6 6 6 7 7 7 8 8 7 7 7 7 7 7 7 7 6 5 3 1 2 2 2 3 3 3 4 4 3 2 2 2 3 3 3 3 3 2 2 2 3 3 2 2 2 2 1 2 3 3 2 2 2 3 2 2 1 1 1 1
6 6 6 6 7 7 7 7 7 6 6 6 7 8 8 8 7 7 7 7 7 8 8 8 7 6 4 1 2 3 3 2 2 3 3 4 5 5 4 3 3 4 4 4 3 2 2 2 3 4 4 3 2 2 2 2 2 3 3 2 2 3 3 3 2 2 1 1 1
6 6 6 6 7 7 7 7 6 6 6 7 7 8 8 7 7 7 7 7 8 8 7 7 6 5 3 2 2 2 1 1 1 2 2 4 5 5 5 5 5 5 5 5 4 3 3 3 4 4 5 5 3 3 3 3 3 3 4 3 3 3 3 4 3 2 1 1 1
5 6 6 7 7 7 7 7 6 6 6 7 7 7 7 7 7 7 7 7 7 6 6 6 5 3 2 2 1 1 0 1 1 2 3 4 5 5 5 5 5 5 5 5 4 3 3 4 5 6 6 6 5 4 3 3 3 4 4 5 4 4 4 5 3 1 1 1 1
5 6 6 7 7 7 7 7 6 6 6 7 7 7 6 6 6 6 5 5 5 5 4 4 4 2 1 1 0 1 1 2 2 3 4 4 5 5 5 5 5 5 5 5 4 4 4 5 6 6 6 7 7 5 4 3 3 4 5 6 6 6 6 5 3 1 0 1 1
6 6 6 7 7 7 7 7 6 6 6 7 6 6 6 5 5 5 5 4 4 4 3 3 3 3 2 1 1 1 2 3 3 4 4 5 6 6 6 6 6 5 5 5 5 4 5 5 5 5 6 6 7 6 5 4 4 4 5 6 6 6 6 5 3 2 1 1 2
6 6 7 7 7 7 6 6 5 5 6 6 6 6 5 5 5 5 4 4 4 3 3 3 3 3 3 2 2 3 3 4 4 4 5 5 6 6 6 6 6 6 6 5 5 5 4 4 4 4 5 5 6 6 6 5 4 4 5 5 5 5 5 5 4 3 3 2 2
6 6 6 7 7 7 7 6 6 6 6 6 6 6 5 5 5 5 5 4 4 3 3 4 3 3 3 3 3 3 3 4 4 5 5 6 6 7 7 7 6 6 5 5 5 5 4 3 3 3 3 4 5 5 5 5 4 4 5 5 5 5 5 5 4 4 4 4 4
6 6 6 6 7 7 6 6 6 6 6 7 6 6 5 5 5 5 5 5 4 4 5 5 5 4 4 4 4 4 3 4 5 5 5 6 6 6 7 7 6 6 5 5 4 4 4 3 2 2 2 3 4 4 4 4 4 4 4 5 5 5 5 5 5 5 5 5 6
5 6 6 6 6 6 6 6 6 6 6 7 6 6 6 6 6 6 6 5 5 5 5 6 6 5 5 5 5 5 4 4 5 5 6 6 5 6 6 6 6 5 5 4 4 3 3 3 3 2 2 3 3 3 3 3 3 4 4 5 5 5 6 6 5 5 5 6 7
5 5 5 5 5 5 6 6 6 6 6 6 6 7 7 7 6 6 6 7 6 6 6 6 6 6 6 6 7 6 5 4 4 5 5 5 5 5 5 5 5 5 4 3 3 3 4 4 3 3 3 3 3 4 4 3 4 4 4 5 5 6 6 6 6 5 6 6 7
4 4 4 4 4 4 5 5 5 5 6 6 6 7 7 7 7 7 7 7 7 6 6 6 6 7 7 7 7 7 6 4 4 4 4 4 4 4 4 4 4 4 4 4 5 5 5 5 5 4 4 4 5 5 5 4 5 5 5 5 5 6 6 6 6 5 6 6 6
3 3 3 4 3 3 4 4 4 5 5 5 6 6 7 7 7 7 7 7 6 6 6 6 6 6 7 6 6 6 6 5 4 4 4 4 4 4 4 4 5 6 6 7 7 7 7 6 6 5 5 5 5 5 5 5 5 6 7 7 7 7 6 6 6 6 6 6 6
2 3 3 3 3 3 3 4 4 5 5 6 6 7 7 7 7 7 7 7 6 6 6 5 6 6 6 6 5 5 5 4 4 4 4 4 4 5 5 5 6 7 7 6 6 6 6 6 6 5 5 5 5 6 6 6 6 6 7 8 8 8 8 7 6 6 6 6 6
2 2 3 3 3 3 3 4 5 5 6 6 7 7 7 7 7 7 7 7 7 7 7 6 5 6 6 6 5 5 4 4 5 5 5 5 5 6 6 6 6 6 5 5 6 7 6 5 5 5 5 5 5 5 5 5 5 6 7 8 8 8 8 8 7 6 6 6 6
2 2 3 3 3 3 4 4 5 6 6 6 6 7 7 7 7 7 7 8 8 7 7 7 6 5 5 5 5 4 4 4 4 5 5 6 6 6 6 5 5 4 4 5 9 11 11 8 7 5 5 5 5 5 5 5 5 5 6 6 7 7 8 8 8 8 7 7 6
2 2 3 3 3 4 4 5 5 6 6 6 6 6 6 6 6 6 7 7 7 7 7 7 6 5 4 4 4 4 3 3 3 4 4 5 5 5 5 4 4 3 4 6 10 12 12 12 10 8 6 5 5 5 5 5 6 6 5 5 5 6 6 7 8 8 8 7 7
2 2 3 3 3 4 4 4 5 5 6 6 6 7 6 6 6 6 6 7 7 7 6 6 5 4 3 2 3 3 3 3 3 3 3 3 4 4 4 4 3 3 4 8 10 11 11 12 11 10 7 5 4 5 5 5 6 6 6 5 5 5 5 6 7 8 8 8 7
2 2 2 3 3 4 4 4 5 6 6 6 6 6 6 6 6 6 6 7 6 6 6 5 4 3 2 2 2 2 2 2 2 2 2 3 3 3 3 3 3 3 5 8 9 10 10 10 11 10 9 6 4 4 4 4 5 5 5 5 5 5 5 5 6 6 7 7 7
2 2 2 3 3 4 4 4 5 5 6 6 6 6 6 6 6 6 7 7 7 6 5 5 4 3 2 2 2 1 1 2 2 2 2 3 3 3 3 3 3 4 5 8 8 9 9 9 10 10 9 7 4 3 3 3 4 4 4 4 5 5 5 5 5 5 6 6 6
2 2 2 2 3 4 4 4 5 5 5 5 5 6 6 6 6 6 6 6 6 5 5 5 4 3 2 2 2 2 2 2 2 2 3 3 3 3 3 3 3 3 4 7 7 8 8 8 8 9 8 8 4 3 2 2 3 3 4 5 5 5 6 6 6 6 6 6 6
2 2 2 2 3 4 4 4 5 5 5 5 5 6 6 6 6 6 6 5 5 5 5 5 4 3 2 2 2 2 2 2 2 3 2 2 2 2 3 3 3 3 4 6 6 7 7 7 7 7 7 7 4 2 2 2 3 3 4 5 6 6 6 6 6 6 7 7 6
2 2 2 2 3 4 4 5 5 5 5 5 6 6 6 5 5 5 5 5 5 5 5 5 4 3 2 2 2 2 2 2 2 2 2 2 2 2 3 3 4 4 4 6 6 6 6 7 7 7 7 6 4 2 2 2 3 3 4 5 6 7 7 6 6 7 7 8 7
2 2 2 3 3 4 5 5 5 5 5 5 5 5 6 5 5 5 5 5 5 4 4 5 4 3 2 2 2 2 2 2 2 2 3 2 2 3 3 3 4 4 5 6 7 7 7 7 7 7 7 7 4 2 2 3 3 3 4 5 6 7 8 8 7 7 8 8 8
2 2 2 3 4 4 5 5 5 5 5 5 5 6 6 5 6 6 5 5 4 4 3 3 3 2 1 1 1 1 2 2 2 3 3 3 3 3 3 3 3 5 7 8 8 9 9 10 10 10 9 7 4 2 2 3 3 4 5 6 7 7 7 8 8 8 8 8 8
2 2 2 3 4 4 5 5 5 5 5 5 6 6 6 5 5 5 5 4 3 3 3 3 2 1 1 1 1 1 1 2 3 3 3 3 3 3 3 4 4 6 9 11 10 10 11 12 13 13 10 6 3 2 3 3 4 5 6 7 7 8 8 8 8 8 8 8 8
2 2 2 3 4 4 5 5 5 5 5 6 6 6 6 6 5 5 4 3 3 4 4 3 2 2 2 2 1 1 1 2 3 3 3 3 3 3 4 4 5 7 10 12 11 12 12 13 14 14 11 6 3 2 2 3 4 5 6 7 7 8 8 8 8 8 8 7 7
2 2 2 3 4 4 4 4 4 5 5 6 5 5 5 5 5 4 4 3 3 4 4 3 2 2 2 2 2 2 2 2 2 3 3 3 3 3 4 4 5 7 9 11 12 12 13 13 15 14 11 5 3 3 3 3 3 4 5 6 7 8 8 7 7 7 7 7 8
2 2 2 3 4 4 4 4 4 5 5 6 5 5 4 4 4 4 3 2 3 3 4 3 2 2 2 2 2 2 2 3 3 3 3 3 3 3 3 4 5 6 8 11 12 13 13 14 15 15 12 5 3 3 3 3 4 4 5 6 6 7 7 6 6 6 6 7 9
2 2 3 3 3 4 4 4 4 5 5 5 5 5 4 4 4 4 3 2 2 2 3 3 3 2 2 3 3 4 4 3 3 2 2 3 3 3 2 3 4 5 7 10 12 13 13 14 15 16 13 6 3 3 3 3 4 5 5 6 6 6 6 5 5 5 5 7 11
2 3 3 3 3 3 4 4 5 4 4 4 5 5 4 4 4 4 3 2 2 2 2 2 2 2 3 3 4 4 4 4 3 2 2 3 4 4 3 2 4 5 7 9 11 13 14 15 16 16 14 7 4 3 3 4 5 6 6 6 6 5 5 4 4 4 5 6 9
2 2 3 3 3 3 3 4 5 4 4 4 4 4 4 4 3 3 3 2 2 2 2 2 2 2 2 3 3 4 4 4 4 3 3 3 3 4 3 2 4 5 6 8 10 12 14 15 16 17 15 9 5 4 3 4 5 6 7 7 6 6 6 6 5 5 6 6 7
Wind_Direction
27 24 22 17 11 5 358 352 344 337 332 329 328 328 330 333 332 330 330 331 329 325 319 313 314 316 315 310 309 317 344 21 37 43 45 43 44 45 45 47 47 45 44 43 43 45 48 51 55 57 60 65 71 71 67 52 39 36 38 42 45 46 47 45 39 21 351 329 324
19 15 13 10 5 0 356 351 345 339 334 330 328 328 330 333 332 331 330 332 328 322 316 309 309 310 308 304 304 315 341 15 31 41 46 44 43 44 46 47 45 45 44 43 43 43 45 47 50 50 49 49 59 64 64 56 49 46 45 42 35 27 19 11 329 295 279 279 279
12 8 6 6 3 360 356 352 346 340 336 332 332 332 333 333 333 333 332 331 328 324 318 310 306 305 304 303 305 316 335 360 20 38 47 48 46 47 47 49 45 44 43 44 43 43 43 44 49 50 47 47 55 61 62 56 54 56 58 46 6 315 285 263 255 252 249 244 245
9 6 3 1 359 355 351 346 340 337 335 334 335 336 337 336 335 333 331 329 331 329 322 310 303 301 303 304 307 314 327 346 19 44 54 54 54 54 54 53 50 46 45 47 48 48 48 49 55 61 66 70 77 84 91 95 109 146 173 200 218 221 219 221 225 227 227 226 228
4 1 358 355 352 348 344 341 339 336 335 335 338 340 339 338 337 335 334 335 335 330 321 309 300 298 300 302 303 307 319 345 25 52 62 61 59 60 61 60 57 55 54 57 59 63 68 74 87 105 121 130 137 152 168 182 190 195 198 202 206 207 209 212 217 221 224 225 231
359 355 352 350 348 346 343 342 338 335 334 336 341 342 341 340 339 336 334 331 327 323 318 311 301 295 295 297 295 299 314 355 26 50 62 64 60 61 65 69 68 67 67 72 81 97 117 132 145 164 180 189 193 198 200 199 199 201 204 210 214 217 221 224 228 226 222 220 234
358 354 351 348 348 346 344 341 338 336 336 339 342 341 338 335 334 331 327 324 325 325 323 317 305 297 292 290 286 292 316 3 14 26 41 53 50 56 65 75 79 81 90 116 156 181 192 192 191 202 214 222 227 225 222 219 224 229 232 236 243 247 245 241 240 229 213 200 216
359 356 351 347 347 345 343 340 338 338 339 343 342 338 335 333 332 330 328 328 328 326 323 320 310 300 290 280 272 281 328 8 1 358 358 6 13 31 63 87 103 164 219 229 231 232 233 233 230 233 238 244 249 253 258 274 276 266 255 249 255 259 259 257 255 241 219 198 211
358 353 349 348 348 346 342 339 338 338 340 341 339 337 335 334 334 334 334 332 327 323 321 320 314 306 295 276 268 301 11 13 1 350 341 329 316 299 275 253 252 251 252 250 248 248 250 254 254 252 253 256 266 279 298 297 267 259 256 252 260 268 273 273 270 260 239 214 231
355 351 349 350 348 345 343 341 340 341 342 342 340 339 338 338 339 339 337 331 327 327 327 325 323 318 310 284 329 28 27 14 2 346 332 317 306 297 288 277 268 265 263 261 259 260 262 265 264 265 267 269 277 285 290 270 256 256 259 260 270 281 285 285 286 283 277 266 267
351 349 349 350 347 345 345 346 344 345 346 346 344 343 342 341 342 341 339 335 335 334 333 331 331 330 330 355 45 46 32 12 356 339 323 311 303 299 297 292 287 282 280 280 283 285 284 277 271 271 272 273 272 275 275 271 262 262 265 269 276 284 287 287 291 294 297 296 299
350 349 350 350 348 349 350 350 348 347 348 347 346 345 344 343 344 343 342 342 342 340 338 336 338 343 359 53 64 61 38 352 329 311 299 294 293 295 298 299 299 297 296 296 300 302 297 284 276 275 275 276 273 269 265 267 267 269 271 275 279 279 279 279 284 294 320 338 325
351 352 353 352 352 352 353 352 349 348 348 347 346 345 344 343 345 346 346 345 346 344 342 340 342 354 23 72 88 108 209 252 262 269 276 281 284 287 291 294 294 294 294 295 295 293 288 280 277 276 277 281 282 278 271 268 270 272 275 280 282 278 274 272 278 294 342 356 324
356 357 356 354 354 355 355 352 349 348 348 346 346 344 344 342 345 346 346 344 344 342 340 336 339 348 14 81 127 213 243 253 263 272 279 283 283 285 286 286 285 284 284 285 282 279 274 272 273 274 277 282 286 288 287 282 274 272 274 278 280 279 278 277 281 287 306 296 282
2 0 357 356 356 356 355 352 350 348 347 345 344 343 343 343 340 339 337 334 333 332 332 333 330 329 326 316 283 276 277 281 283 286 288 290 291 292 292 291 290 288 287 285 282 276 271 268 270 273 277 281 286 290 293 290 280 273 272 273 276 279 281 284 284 272 241 230 248
4 1 358 357 356 355 353 352 350 348 346 343 342 341 341 339 332 328 324 321 320 321 322 322 315 311 307 302 291 290 293 295 295 295 296 298 300 302 302 302 301 299 296 293 290 287 282 276 273 273 275 277 282 286 290 290 284 277 273 271 272 273 275 276 269 253 234 219 228
5 0 357 356 355 353 351 351 351 349 345 339 338 337 336 333 325 319 314 308 308 311 314 311 304 302 302 301 296 295 297 299 299 299 300 301 304 305 306 306 305 305 303 300 297 296 295 294 285 273 267 268 273 278 281 284 284 281 277 274 270 266 263 259 250 239 229 222 225
3 359 356 355 353 350 349 350 351 348 342 336 334 331 329 325 320 314 308 302 302 307 311 310 308 306 306 306 304 302 301 301 301 301 302 303 303 304 305 306 308 309 308 303 298 298 301 306 301 284 267 262 264 268 272 278 282 283 281 278 271 264 257 251 241 232 226 224 228
1 357 354 352 349 347 349 352 350 345 338 332 329 325 322 319 316 312 309 305 302 304 309 312 314 316 315 314 312 311 309 307 306 306 306 306 306 308 310 313 315 316 313 306 303 306 315 323 322 312 294 281 278 279 281 286 289 288 285 280 273 266 259 251 241 233 227 226 231
359 355 351 347 344 346 350 353 346 338 331 327 325 322 320 317 316 314 311 307 305 306 310 315 320 323 324 324 323 322 321 319 318 317 316 317 320 322 323 324 324 322 322 322 329 337 344 347 343 336 327 319 316 313 312 310 306 299 291 284 276 269 263 257 249 241 235 232 235
357 351 344 338 339 346 351 349 337 329 324 323 322 320 320 319 318 315 311 308 308 312 317 323 326 329 330 331 330 329 329 331 333 333 334 337 339 339 337 336 338 342 348 356 359 360 358 355 350 345 340 337 331 326 322 319 314 308 302 296 288 281 275 271 266 259 252 246 245
348 340 334 329 331 341 345 338 327 322 321 322 322 322 322 322 320 317 315 313 316 321 327 331 332 332 333 333 333 333 335 339 346 352 355 358 357 355 355 360 6 10 11 9 5 2 357 353 349 346 344 340 334 329 325 322 319 315 312 309 304 300 295 291 288 284 280 275 271
330 326 323 319 324 333 336 331 326 325 325 327 326 326 325 324 322 322 322 324 327 331 333 334 335 335 336 338 341 343 346 352 0 6 10 15 14 12 13 19 22 20 15 7 4 2 359 354 350 348 347 344 336 331 328 325 323 321 319 317 315 313 311 307 303 299 294 290 286
314 315 314 315 322 329 333 331 331 330 330 329 328 326 325 324 325 327 329 331 333 334 335 335 335 338 341 346 353 358 4 9 11 13 15 19 21 22 22 24 23 18 10 3 11 15 17 11 4 360 357 354 345 339 334 332 329 327 325 323 322 320 318 315 311 305 297 289 284
304 309 313 316 323 328 332 334 333 331 329 327 326 325 325 325 327 329 332 333 333 333 333 333 335 340 347 353 359 7 16 24 23 21 20 20 23 24 25 24 19 10 4 8 22 26 28 29 28 23 15 8 1 354 349 345 340 336 331 328 325 323 320 318 314 310 305 298 293
299 310 316 316 322 328 332 333 330 328 326 327 328 327 325 324 326 329 331 332 332 331 331 333 337 343 350 354 0 9 19 27 29 29 28 25 25 25 24 21 11 2 6 21 29 31 32 33 34 35 33 24 16 8 2 354 349 344 339 333 328 324 320 318 315 313 311 309 307
299 309 312 315 323 327 328 327 327 327 328 328 327 325 322 321 325 329 331 331 329 329 331 333 336 341 346 353 3 12 18 21 23 27 32 35 33 28 22 13 358 352 10 31 34 34 33 32 32 34 37 36 26 17 8 357 351 347 343 337 330 323 317 312 310 310 311 312 312
288 297 306 317 322 322 322 324 327 326 325 323 321 318 317 319 323 328 330 329 330 331 333 332 331 334 343 352 357 5 15 18 14 15 23 35 36 30 18 1 342 348 13 36 36 34 32 30 29 30 32 36 29 19 8 358 350 345 340 334 326 318 311 305 304 305 307 308 309
272 287 303 316 316 317 318 323 322 319 316 314 313 314 317 320 324 328 329 330 332 332 331 326 325 331 343 338 326 338 6 19 10 7 15 26 26 19 5 348 331 345 12 35 34 31 28 26 25 25 26 29 27 18 5 356 346 339 331 325 317 310 305 301 300 300 301 301 303
264 278 296 303 307 310 312 313 310 309 309 310 313 316 318 322 325 327 328 328 327 325 322 319 322 326 328 315 313 334 5 17 9 8 14 20 14 2 346 332 319 330 360 28 30 26 21 20 19 19 19 22 22 14 357 345 335 327 320 314 307 302 298 296 295 295 295 296 299
261 269 282 293 300 302 303 302 304 306 309 311 315 318 319 322 322 322 321 320 318 317 319 323 325 324 319 311 320 343 5 10 5 5 5 6 354 336 321 315 308 316 344 19 23 19 13 11 9 9 9 12 12 2 340 329 320 314 309 305 301 298 296 294 293 293 293 295 298
256 261 273 286 292 294 296 299 303 307 310 313 315 317 318 318 315 313 313 313 315 321 326 330 329 329 329 328 332 344 357 3 355 349 340 334 319 309 306 307 303 307 331 9 15 10 3 359 357 356 357 1 360 346 324 314 309 304 301 298 297 295 295 295 295 294 294 296 298
252 258 269 280 286 290 294 299 303 308 311 314 315 316 316 315 313 314 314 315 319 324 328 327 324 323 322 322 326 336 342 345 334 325 318 312 306 303 303 305 302 309 329 359 5 1 355 351 348 348 349 354 352 338 319 313 308 306 304 301 298 296 295 294 294 295 297 298 299
247 257 269 276 283 289 294 299 304 309 313 315 315 315 316 316 316 316 316 315 316 320 321 320 313 307 301 302 314 323 325 322 317 314 312 313 312 311 310 310 307 321 335 352 357 357 354 352 349 350 352 356 352 338 324 320 315 311 308 305 303 301 299 297 296 296 297 298 299
239 253 269 277 283 289 295 301 306 311 315 316 315 314 315 315 313 310 308 306 309 315 318 316 314 319 324 331 334 326 318 312 310 311 315 322 325 325 323 319 318 332 341 349 354 356 355 354 351 352 356 1 354 336 324 321 315 312 309 307 306 304 302 300 299 298 297 298 298
229 242 261 275 284 290 295 301 307 312 314 314 313 312 312 311 308 304 301 301 310 316 319 319 325 332 333 327 326 317 306 305 311 317 325 337 339 338 333 327 326 336 343 348 353 356 356 354 350 350 353 358 349 332 323 318 313 310 309 308 306 305 303 301 300 298 297 297 296
222 228 248 268 280 287 293 300 307 310 311 309 308 308 308 308 304 302 301 308 318 319 318 318 319 314 307 304 305 306 311 328 332 333 337 344 346 342 336 330 329 333 339 347 354 355 354 353 348 347 348 351 345 333 325 319 315 312 310 309 305 303 300 298 297 296 295 295 296
218 220 236 259 274 283 291 299 304 304 304 303 302 302 303 304 302 302 303 312 318 316 312 309 300 291 294 310 320 330 343 5 6 356 345 340 338 335 332 330 326 327 334 345 352 354 352 350 346 345 345 346 343 333 325 322 318 315 312 308 303 299 295 292 292 293 294 296 305
215 217 231 251 266 278 287 295 297 297 296 297 298 300 302 304 301 301 302 303 302 299 297 293 292 303 328 351 354 353 355 3 12 7 349 330 319 321 328 328 318 319 327 341 349 350 349 347 344 344 344 344 342 332 324 322 318 314 310 305 300 296 291 289 292 297 300 300 313
212 218 230 246 260 271 280 288 289 288 289 293 297 300 301 300 297 298 301 301 296 291 289 287 305 337 5 19 13 1 351 345 351 351 341 322 318 328 338 329 310 310 319 333 343 346 346 345 343 343 343 342 343 336 327 324 319 314 309 305 302 300 301 303 308 312 311 308 315
213 223 234 247 256 265 274 281 283 285 288 292 294 293 293 293 294 298 305 309 310 310 308 306 338 8 29 38 28 8 349 334 329 326 324 324 325 334 338 320 307 307 313 324 335 340 342 342 342 342 342 342 343 340 332 328 322 317 313 310 311 315 321 325 325 322 318 314 314